TimeCST,TemperatureF,Dew PointF,Humidity,Sea Level PressureIn,VisibilityMPH,Wind Direction,Wind SpeedMPH,Gust SpeedMPH,PrecipitationIn,Events,Conditions,WindDirDegrees,DateUTC
12:54 AM,16.0,10.0,77,30.38,10.0,WNW,3.5,-,N/A,,Clear,290,2013-01-04 06:54:00
1:54 AM,15.1,9.0,77,30.39,10.0,West,4.6,-,N/A,,Clear,260,2013-01-04 07:54:00
2:54 AM,12.0,8.1,84,30.40,10.0,SW,6.9,-,N/A,,Clear,230,2013-01-04 08:54:00
3:54 AM,12.9,8.1,81,30.38,10.0,WSW,6.9,-,N/A,,Clear,250,2013-01-04 09:54:00
4:54 AM,10.0,7.0,87,30.38,10.0,SW,8.1,-,N/A,,Clear,220,2013-01-04 10:54:00
5:54 AM,10.0,7.0,87,30.38,10.0,SW,6.9,-,N/A,,Clear,220,2013-01-04 11:54:00
6:54 AM,12.0,8.1,84,30.38,10.0,SW,5.8,-,N/A,,Clear,230,2013-01-04 12:54:00
7:54 AM,14.0,10.0,84,30.38,8.0,SW,6.9,-,N/A,,Clear,230,2013-01-04 13:54:00
8:54 AM,19.0,14.0,81,30.38,9.0,SW,9.2,-,N/A,,Clear,220,2013-01-04 14:54:00
9:54 AM,24.1,18.0,77,30.40,8.0,SW,10.4,-,N/A,,Clear,220,2013-01-04 15:54:00
10:54 AM,28.0,19.9,72,30.39,10.0,SW,12.7,-,N/A,,Clear,230,2013-01-04 16:54:00
11:54 AM,30.0,21.0,69,30.36,10.0,SW,15.0,21.9,N/A,,Clear,230,2013-01-04 17:54:00
12:54 PM,33.1,21.9,64,30.33,10.0,WSW,13.8,-,N/A,,Clear,250,2013-01-04 18:54:00
1:54 PM,33.1,23.0,66,30.31,10.0,SW,18.4,-,N/A,,Clear,220,2013-01-04 19:54:00
2:54 PM,34.0,23.0,64,30.31,10.0,SW,13.8,21.9,N/A,,Clear,230,2013-01-04 20:54:00
3:54 PM,34.0,21.9,61,30.30,10.0,SW,12.7,-,N/A,,Clear,230,2013-01-04 21:54:00
4:54 PM,30.9,21.0,67,30.31,10.0,SW,6.9,-,N/A,,Clear,230,2013-01-04 22:54:00
5:54 PM,28.9,19.9,69,30.32,10.0,SW,6.9,-,N/A,,Clear,220,2013-01-04 23:54:00
6:54 PM,25.0,18.0,75,30.32,10.0,SSW,5.8,-,N/A,,Clear,200,2013-01-05 00:54:00
7:54 PM,26.1,19.0,75,30.32,10.0,SSW,9.2,-,N/A,,Clear,200,2013-01-05 01:54:00
8:54 PM,23.0,17.1,78,30.30,10.0,SSW,8.1,-,N/A,,Clear,210,2013-01-05 02:54:00
9:54 PM,25.0,18.0,75,30.30,10.0,SSW,9.2,-,N/A,,Clear,210,2013-01-05 03:54:00
10:54 PM,24.1,18.0,77,30.30,10.0,SSW,10.4,-,N/A,,Clear,210,2013-01-05 04:54:00
11:54 PM,23.0,17.1,78,30.28,10.0,SSW,8.1,-,N/A,,Clear,200,2013-01-05 05:54:00